Powrót do katalogu

ATLAS 5 CENTAUR DEB

LostHEO
NORAD 46850·DEBRIS·🇺🇸 United States

Wystrzelony Oct 17, 2018 z Cape Canaveral Space Force Station

Loading…

Następne Przeloty (najbliższe 24 godziny)

TLE

NieaktualneSource: Space-Track

Epoka: Jun 9, 2024, 05:40 UTC

1 46850U 18079DF  24161.23674787 -.00000101  00000-0  00000+0 0  9998
2 46850  11.6521 104.7241 4356396 179.2076 181.7518  1.80003393 24169

Śledź ATLAS 5 CENTAUR DEB w czasie rzeczywistym z AllMySat

Download on the App Store